OBJECT D, 63431

Orbit data source: Space-Track

You're viewing an Uncataloged Satellite

Recently launched and/or uncataloged satellites may have evolving metadata. Metadata may include but not limited to: Owner, Maufacturer, Bus, Motor, and Mission.

OBJECT D, 63431 is a satellite owned by Zhongguo Xingwang (CN) in LEO that was launched on Tue, 01 Apr 2025 UTC via a CHANG ZHENG 2D launch vehicle from the Jiuquan Satellite Launch Center, China (JSC). Unknown objects in Earth's orbit typically refer to objects detected orbiting the Earth but have not yet been identified or cataloged. These objects could be anything from previously untracked satellites, spent rocket stages, debris from satellite collisions, or even natural meteoroids temporarily captured by Earth's gravity.

Loading next visibility...
Identifier
63431, 2025-067D
Orbit
LEO
Last TLE update
6 hours ago
Origin
Manufacturer
Changguang WJ
Mission
Operational Civil Communications
Bus & Motor
Unknown
Mass
~300 kg wet, ~300 kg dry
Launch date (UTC)
2025-04-01 (1 month ago)
Launch vehicle
CHANG ZHENG 2D
Launch site
Jiuquan Satellite Launch Center, China (JSC)
Object type
Unknown
Shape & HBR
Box + 2 Pan, 2.5 m
Radar Cross Section
2.320 m², Large (>1 m²)

Expand to show TLE details & history

TLE from 6 hours ago
0 OBJECT D
1 63431U 25067D   25129.92325592  .00015415  00000-0  40855-3 0  9994
2 63431  54.9983  34.8963 0011334  39.8414 320.3444 15.38523315  5978
Epoch: 2025-05-09T22:09Z
Definitive object data (Epoch: 2025-05-09T22:09:29.311Z)
Latitude
-0.00003°
Longitude
-165.44829°
Altitude
445.619 km
Speed
7.649 km/s
True Right ascension
02h 19m 35s
True Declination
0° 00' 00"
Sunlit
Object was in daylight at TLE epoch
Visualization TLE readout
Latitude
4.99368°
Longitude
-163.13443°
Altitude
444.647 km
Speed
7.65 km/s
Apparent Right ascension
01h 42m 28s
Apparent Declination
-17° 01' 51"
Sunlit
Object is in daylight
Visualization observer readout
Local Sidereal Time
12:37:43
Azimuth
323.825° NNW
Elevation
-63.152°
Doppler factor
1
Orbital elements
Apogee altitude
458.177 km
Perigee altitude
442.698 km
Semi-major axis
6,828.575 km
Eccentricity
0.0011334
Inclination
54.9983°
RAAN
34.8963°
Arg. of periapsis
39.8414°
True anomaly
320.26143°
Mean anomaly
320.3444°
Eccentric anomaly
320.30292°
Mean motion
3.84634 °/min
BSTAR
0.00040855
Orbital period
93.6 mins
Loading maneuver chart data...
Loading SW <> Apogee altitude chart data...
Loading historical data...
Loading historical data...
Loading historical data...
Loading historical data...
Loading historical data...
Loading historical data...
Loading historical data...
Other satellites on launch #67 in the year 2025 (2025-04-01 UTC)

OBJECT D Visibility forecast

Observer location: undefined°, undefined°

Span
Click to sort rows by Start time (UTC) header in descending order
Start Az.
Max El. time (UTC)
Max El. Az.
Max El.
End time (UTC)
End Az.
5 mins2025-05-10 20:10:16.489Z227.553° WSW2025-05-10 20:12:16.489Z235.505° WSW43.375°2025-05-10 20:15:16.489Z45.93° ENE
6 mins2025-05-11 02:42:16.489Z325.872° NNW2025-05-11 02:45:16.489Z27.441° NE33.489°2025-05-11 02:48:16.489Z107.272° ESE
|